User: anonymous   Login
Location: ?????
(54.9266°N, 38.5527°E)
Time: 13:10:56
(UTC+00:00)
Language:

CZ-4 R/B - Orbit

View from above orbital plane
View from above orbital plane
View from above satellite
View from above satellite

Ground track
Ground track

The orbit data is extracted from the following two-line orbital elements,

1 28059U 03049C   24171.87029588  .00000525  00000-0  13497-3 0  9991
2 28059  98.6108 134.3155 0048911 349.4674  10.5493 14.53803399 95337
Epoch (UTC): 19 June 2024 20:53:13
Eccentricity: 0.0048911
inclination: 98.6108°
perigee height: 678 km
apogee height: 748 km
right ascension of ascending node: 134.3155°
argument of perigee: 349.4674°
revolutions per day: 14.53803399
mean anomaly at epoch: 10.5493°
orbit number at epoch: 9533

The dashed part of the orbit path shows where the satellite is in the earth's shadow,  

DLR